Weather in Velikie Luky

Russia / Pskov Oblast     56°20′32″N   30°31′19″E
temp.,
°C
wind,
m/s
gust,
m/s
humid.,
%
clouds,
%
prec.,
mm/h
press.,
hPa
HPBL,
m
6 may, thu
thu600:00+8se3997100 0.5 1000256
03:00+10ssw4129599 4.1 998530
06:00+8s41395100 0.5 996496
09:00+8wsw6894100 2.3 995729
12:00+7w5990100 5.0 997947
15:00+9sw61080100 5.6 9991246
18:00+8wsw7128290 1.2 10011351
21:00+5sw511865 1.4 1003657
7 may, fri
fri700:00+4sw513915 0.0 1004627
03:00+3ssw514915 0.0 1005546
06:00+3ssw41289100 0.0 1006430
09:00+6sw6981100 0.1 1006938
12:00+7sw5776100 0.1 1008999
15:00+11sw4856100 0.1 10071777
18:00+10s4572100 0.3 1006788
21:00+7ese3892100 0.7 1005302
8 may, sat
sat800:00+8sse41096100 1.3 1002676
03:00+7sse399899 2.9 1000561
06:00+7ssw479698 0.1 999462
09:00+8s239397 0.6 999366
12:00+8nnw559196 3.3 999591
15:00+4nw61197100 4.8 1001962
18:00+5wnw71393100 1.9 10041076
21:00+4wnw61288100 2.1 10071027
9 may, sun
sun900:00+3wnw613877 0.0 1010773
03:00+2w514905 0.0 1013497
06:00+1w513875 0.0 1016411
09:00+6wnw59650 0.0 1018659
12:00+10w56475 0.0 10191623
15:00+12wsw464195 0.0 10202037
18:00+12sw3652100 0.0 10211541
21:00+6ssw357269 0.0 102271
10 may, mon
mon1000:00+5ssw368292 0.0 1023101
03:00+4s3108366 0.0 1024206
06:00+6s41175100 0.0 1025313
09:00+9s4117184 0.0 1025410
12:00+16ssw57535 0.0 10251091
15:00+17ssw575133 0.0 10251255
18:00+16s57617 0.0 10241100
21:00+11sse39855 0.0 1025161